{"data":{"norad_id":67194,"intl_designator":"2025-304C","name":"STARLINK-36284","alt_names":[],"object_type":"PAYLOAD","status":"ACTIVE","operator":null,"country":"US","launch_date":"2025-12-17","launch_site_code":"AFWTR","launch_vehicle":null,"mission":null,"orbit_class":"UNKNOWN","rcs_meters":null,"size_class":null,"mass_kg":null,"dimensions":null,"purposes":["comms"],"wikipedia_slug":null,"has_3d_model":false,"image_url":null,"decayed_at":null,"tle_current":{"epoch":"2026-09-20T15:20:24.237888Z","epoch_age_seconds":66530,"freshness":"FRESH","line1":"1 67194U 25304C   26263.63916942  .00002510  00000+0  21806-3 0  9997","line2":"2 67194  70.0030  43.0267 0002632 279.8334  80.2528 14.98337193 43088","mean_motion":14.98337193,"eccentricity":0.0002632,"inclination_deg":70.003,"raan_deg":43.0267,"arg_perigee_deg":279.8334,"mean_anomaly_deg":80.2528,"bstar":0.00021806,"rev_number":4308,"period_min":96.106537749143,"perigee_km":570.20436235989,"apogee_km":573.86293218862,"semimajor_km":6950.1706472743,"source":"CELESTRAK","updated_at":"2026-09-21T09:00:36.135489Z"}}}